STARLINK-35997

Last updated on Mon Dec 15 2025 00:02:12 GMT+0000 (Coordinated Universal Time)

1 66843U 25280Y 25348.25003472 -.01615483 00000+0 -12617-1 0 9996 2 66843 69.9932 194.4906 0003458 270.0341 73.0902 15.74163297 3141
UTC large
Height (km)
Speed (km/s)
/
Latitude / Longitude
Inclination (degrees)
Orbital Period (minutes)
Azimuth
Elevation
Range (km)
Doppler Factor

Next 0 passes for location: London (51.5072 / 0.1276)

Sorry there are no passes over London.